Location: Unspecified
(0.0000°N, 0.0000°E)
Time: 06:09:12
(UTC+00:00)

Transit 4A - Pass Details

Date: 04 October 2020
Orbit: 862 x 982 km, 66.8° (Epoch: 28 October)

Event Time Altitude Azimuth Distance (km) Brightness Sun altitude
Rises 07:12:30 0° 338° (NNW) 3,644 10.7 20.9°
Reaches altitude 10° 07:15:04 10° 337° (NNW) 2,687 10.1 21.5°
Maximum altitude 07:21:21 78° 251° (WSW) 964 8.3 23.1°
Drops below altitude 10° 07:27:27 10° 165° (SSE) 2,617 10.6 24.6°
Sets 07:29:56 0° 163° (SSE) 3,543 11.2 25.2°
